Location: Camaret
(48.2753°N, 4.5961°W)
Time: 01:23:42
(UTC+00:00)

YAOGAN 1 - Pass Details

Date: 29 October 2020
Orbit: 618 x 620 km, 97.9° (Epoch: 26 November)

Event Time Altitude Azimuth Distance (km) Brightness Sun altitude
Rises 18:51:30 0° 165° (SSE) 2,885 5.8 -18.4°
Reaches altitude 10° 18:53:40 10° 165° (SSE) 1,984 5.0 -18.8°
Maximum altitude 18:58:00 89° 256° (WSW) 628 2.5 -19.5°
Drops below altitude 10° 19:02:21 10° 346° (NNW) 1,999 5.3 -20.2°
Sets 19:04:33 0° 347° (NNW) 2,910 6.2 -20.6°
